📊 Raw Sensor Data

Showing records 35351 to 35375 of 84,876 total

ID Distance (ft) Battery V Battery A Int Temp (°F) Int Humid (%) Ext Temp (°F) Solar V RSSI SNR Time Stamp
49538 15.5 3.95 0 72 42 77 5.10 -71 7 08/18/2025 09:45 AM
49537 15.5 3.83 0 70 42 74 5.10 -69 8 08/18/2025 09:30 AM
49536 15.5 3.83 0 69 42 72 5.10 -71 7 08/18/2025 09:15 AM
49535 15.5 3.83 0 66 43 69 5.10 -71 8 08/18/2025 08:45 AM
49534 15.5 3.83 0 65 42 70 5.10 -71 8 08/18/2025 08:30 AM
49533 15.5 3.83 0 64 43 70 5.10 -70 8 08/18/2025 08:15 AM
49532 15.5 3.92 0 63 42 68 5.10 -70 8 08/18/2025 08:00 AM
49531 15.5 4.01 42 61 42 68 4.50 -69 8 08/18/2025 07:45 AM
49530 15.5 3.86 0 59 42 67 4.50 -68 8 08/18/2025 07:30 AM
49529 15.5 3.89 7 57 42 63 4.50 -69 8 08/18/2025 07:15 AM
49528 15.5 3.73 0 55 43 60 4.50 -70 8 08/18/2025 07:00 AM
49527 15.4 3.71 0 53 43 58 4.50 -69 7 08/18/2025 06:45 AM
49526 15.4 3.67 -10 53 43 55 4.50 -70 8 08/18/2025 06:30 AM
49525 15.4 3.83 -5 52 43 55 1.70 -68 8 08/18/2025 06:15 AM
49524 15.4 3.70 -5 51 44 53 0.10 -70 9 08/18/2025 06:00 AM
49523 15.5 3.69 -5 51 44 53 0.00 -70 8 08/18/2025 05:30 AM
49522 15.5 3.69 -5 52 44 53 0.00 -69 8 08/18/2025 05:15 AM
49521 15.5 3.70 -5 53 44 55 0.10 -69 8 08/18/2025 05:00 AM
49520 15.5 3.70 -5 53 44 54 0.00 -69 9 08/18/2025 04:45 AM
49519 15.5 3.70 -5 54 44 55 0.00 -70 8 08/18/2025 04:30 AM
49518 15.5 3.70 -5 55 44 56 0.00 -70 9 08/18/2025 04:15 AM
49517 15.5 3.84 -5 55 44 57 0.10 -69 8 08/18/2025 04:00 AM
49516 15.5 3.70 -5 55 44 57 0.00 -70 8 08/18/2025 03:45 AM
49515 15.5 3.70 -5 55 44 57 0.00 -71 8 08/18/2025 03:30 AM
49514 15.5 3.84 -5 55 44 57 0.00 -69 8 08/18/2025 03:15 AM